Tracking 31030 objects as of 16-Jul-2025
HD Live streaming from Space Station
objects crossing your sky now

ARIANE 1 DEB

Track ARIANE 1 DEB now!
10-day predictions


NORAD ID: 39106
Int'l Code: 1986-019VU
Perigee: 788.0 km
Apogee: 879.0 km
Inclination: 98.4 °
Period: 101.4 minutes
Semi major axis: 7204 km
RCS: 0.0054 m2 (small)
Launch date: February 22, 1986
Source: France (FR)
Launch site: FRENCH GUIANA (FRGUI)

Note: This is SATELLITE DEBRIS
Your satellite tracking list
Your tracking list is empty




NASA's NSSDC Master Catalog

Two Line Element Set (TLE):
1 39106U 86019VU  25195.30569188  .00000129  00000-0  78942-4 0  9991
2 39106  98.4103 222.3475 0063117 310.7505  48.8203 14.19704563623804
Source of the keplerian elements: AFSPC